Location: *
(46.1833°N, 22.7667°E)
Time: 12:54:41
(UTC+00:00)

CZ-2C R/B - Pass Details

Date: 17 September 2019
Orbit: 785 x 870 km, 98.3° (Epoch: 15 October)

Event Time Altitude Azimuth Distance (km) Brightness Sun altitude
Rises 19:07:57 0° 17° (NNE) 3,427 6.1 -25.3°
Reaches altitude 10° 19:10:22 10° 22° (NNE) 2,498 5.3 -25.7°
Enters shadow 19:14:19 42° 51° (NE) 1,220 3.3 -26.3°
